S51UL-6 Weather Reports


time (UTC)temp
C
wind
direction
speed
KPH
gust
KPH
rain 1hr
cm
rain 24hr
cm
rain mn
cm
humidity
%
barometer
mb
20260906023522 13 23 0.0 0.0 20.93 25.37 0.00 91 1025.2
20260906022523 13 23 0.0 0.0 20.47 25.37 0.00 91 1025.0
20260906022023 13 23 0.0 0.0 22.17 25.37 0.00 91 1025.0
20260906021523 13 23 0.0 0.0 20.68 25.37 0.00 91 1025.0
20260906021023 13 23 0.0 0.0 18.64 25.37 0.00 91 1025.3
20260906020522 13 23 0.0 0.0 20.12 25.37 0.00 91 1025.2
20260906015024 13 23 0.0 0.0 14.50 25.37 0.00 91 1025.0
20260906014523 13 23 0.0 0.0 18.92 25.37 0.00 91 1024.9
20260906014024 13 23 0.0 0.0 16.33 24.66 0.00 91 1024.8
20260906013022 13 23 0.0 0.0 19.28 22.99 0.00 91 1025.0
20260906012522 13 23 0.0 0.0 17.63 22.99 0.00 90 1025.0
20260906012023 13 23 0.0 0.0 19.68 22.99 0.00 90 1025.0
20260906011523 13 23 0.0 0.0 19.74 22.99 0.00 90 1025.0
20260906010523 14 23 0.0 0.0 21.72 20.29 0.00 90 1025.0
20260906010023 14 23 0.0 0.0 23.11 20.24 0.00 90 1025.0
20260906005523 14 23 0.0 0.0 22.86 19.99 0.00 90 1024.9
20260906005024 14 23 0.0 0.0 18.47 15.57 0.00 90 1024.9
20260906004523 14 23 0.0 0.0 22.50 15.57 0.00 90 1025.0
20260906003524 14 23 0.0 0.0 20.62 9.78 0.00 90 1024.9
20260906003023 14 23 0.0 0.0 22.66 10.13 0.00 90 1024.8
20260906002523 14 23 0.0 0.0 23.16 10.13 0.00 90 1024.9
20260906002023 14 23 0.0 0.0 23.16 10.13 0.00 90 1024.8
20260906001523 14 23 0.0 0.0 21.36 10.13 0.00 90 1024.7
20260906001023 14 23 0.0 0.0 21.82 10.13 0.00 90 1024.7
20260906000530 14 23 0.0 0.0 24.16 8.43 0.00 90 1024.6
20260906000025 14 23 0.0 0.0 24.51 6.99 0.00 90 1024.6
20260905235524 14 23 0.0 0.0 24.51 6.99 0.00 90 1024.5
20260905234024 14 23 0.0 0.0 24.16 3.86 0.00 90 1024.4
20260905233025 14 23 0.0 0.0 22.43 2.03 0.00 90 1024.4
20260905232526 14 23 0.0 0.0 24.26 2.03 0.00 90 1024.4
20260905231025 14 23 0.0 0.0 21.82 2.03 0.00 89 1024.3
20260905230525 14 23 0.0 0.0 24.05 0.58 0.00 89 1024.3
20260905225025 14 23 0.0 0.0 20.42 25.37 0.00 89 1024.5
20260905224025 14 23 0.0 0.0 23.37 25.37 0.00 89 1024.4
20260905223525 14 23 0.0 0.0 21.06 25.37 0.00 89 1024.3
20260905222524 14 23 0.0 0.0 22.96 25.37 0.00 89 1024.4
20260905222027 14 23 0.0 0.0 22.96 25.37 0.00 89 1024.2
20260905221525 14 23 0.0 0.0 21.16 25.37 0.00 89 1024.1
20260905221025 14 23 0.0 0.0 21.11 25.37 0.00 89 1024.1
20260905220525 15 23 0.0 0.0 23.11 25.37 0.00 89 1024.1
20260905215025 15 23 0.0 0.0 19.96 25.37 0.00 89 1024.2
20260905214526 15 23 0.0 0.0 24.51 25.37 0.00 89 1024.2
20260905214026 15 23 0.0 0.0 25.25 25.37 0.00 89 1024.1
20260905213527 15 23 0.0 0.0 23.32 25.37 0.00 89 1023.9
20260905213025 15 23 0.0 0.0 23.80 25.37 0.00 89 1023.9
20260905212527 15 23 0.0 0.0 25.37 25.37 0.00 88 1024.0
20260905212025 15 23 0.0 0.0 25.37 25.37 0.00 88 1024.0
20260905211525 15 23 0.0 0.0 24.31 25.37 0.00 88 1023.9
20260905211026 15 23 0.0 0.0 22.33 25.37 0.00 88 1023.9
20260905210525 15 23 0.0 0.0 24.71 25.37 0.00 89 1023.9
20260905205525 15 23 0.0 0.0 23.16 25.37 0.00 89 1023.7
20260905205026 15 23 0.0 0.0 18.59 25.37 0.00 88 1023.6
20260905204527 15 23 0.0 0.0 23.01 25.37 0.00 88 1023.4
20260905203526 15 23 0.0 0.0 18.97 25.37 0.00 88 1023.3
20260905203026 15 23 0.0 0.0 18.82 25.37 0.00 88 1023.6
20260905202528 15 23 0.0 0.0 18.92 25.37 0.00 88 1023.5
20260905201526 16 23 0.0 0.0 18.54 25.37 0.00 88 1023.6
20260905201026 16 23 0.0 0.0 16.10 25.37 0.00 88 1023.5
20260905200028 16 23 0.0 0.0 18.24 25.37 0.00 88 1023.3
20260905195027 16 23 0.0 0.0 14.99 25.37 0.00 88 1023.3
20260905194526 16 23 0.0 0.0 19.84 25.37 0.00 88 1023.3
20260905193027 16 135 0.0 0.0 21.67 25.37 0.00 88 1023.0
20260905192526 16 135 0.0 0.0 23.22 25.37 0.00 87 1022.7
20260905192028 16 135 0.0 0.0 23.22 25.37 0.00 86 1022.6
20260905191527 16 135 0.0 0.0 23.32 25.37 0.00 86 1022.7
20260905191027 16 135 0.0 0.0 23.11 25.37 0.00 86 1022.5
20260905190027 16 135 0.0 0.0 25.37 25.37 0.00 86 1022.7
20260905185027 16 135 0.0 0.0 21.51 25.37 0.00 86 1022.5
20260905184528 16 135 0.0 0.0 25.37 25.37 0.00 86 1022.4
20260905184028 17 135 0.0 0.0 25.37 25.37 0.00 85 1022.4
20260905181527 17 135 0.0 0.0 25.10 25.37 0.00 85 1021.9
20260905181027 17 135 0.0 0.0 25.10 25.37 0.00 85 1022.0
20260905180528 17 135 0.0 0.0 25.37 25.37 0.00 85 1021.8
20260905174528 18 135 0.0 0.0 25.37 25.37 0.00 85 1021.5
20260905173028 18 135 0.0 0.0 23.16 23.01 0.00 83 1021.2
20260905172528 18 135 0.0 0.0 24.87 23.01 0.00 83 1021.1
20260905171528 18 135 0.0 0.0 20.88 23.01 0.00 83 1021.0
20260905171029 18 135 0.0 0.0 18.82 23.01 0.00 82 1020.8
20260905170028 19 135 0.0 0.0 14.73 19.68 0.00 82 1020.8
20260905165528 19 135 0.0 0.0 14.73 19.68 0.00 82 1020.7
20260905165031 20 135 0.0 0.0 10.82 15.80 0.00 82 1020.5
20260905164529 20 135 0.0 0.0 10.82 15.80 0.00 82 1020.5
20260905164028 20 135 0.0 0.0 6.53 11.51 0.00 81 1020.4
20260905163028 20 135 0.0 0.0 2.79 7.77 0.00 81 1020.6
20260905162529 20 135 0.0 0.0 0.99 5.94 0.00 81 1020.6
20260905161029 20 135 0.0 0.0 0.00 4.98 0.00 81 1020.5
20260905155529 20 113 0.0 0.0 0.00 4.98 0.00 80 1020.6
20260905154529 20 113 0.0 0.0 0.00 4.98 0.00 80 1020.5
20260905154029 20 113 0.0 0.0 0.00 4.98 0.00 80 1020.5
20260905153530 20 113 0.0 0.0 0.00 4.98 0.00 80 1020.6
20260905152529 20 113 0.0 0.0 0.00 4.98 0.00 80 1020.7
20260905152030 20 113 0.0 0.0 0.00 4.98 0.00 79 1020.8
20260905151529 20 113 0.0 0.0 0.00 4.98 0.00 79 1020.7
20260905151029 20 113 0.0 0.0 0.00 4.98 0.00 80 1020.7
20260905150530 20 113 0.0 0.0 0.00 4.98 0.00 80 1020.7
20260905150029 20 113 0.0 0.0 0.00 4.98 0.00 80 1020.7
20260905145530 20 113 0.0 0.0 0.00 4.98 0.00 80 1020.7
20260905145030 20 113 0.0 0.0 0.00 4.98 0.00 81 1020.8
20260905144530 20 158 0.0 0.0 0.00 4.98 0.00 81 1020.7
20260905144030 19 158 0.0 0.0 0.00 4.98 0.00 82 1020.6
20260905143531 19 158 0.0 0.0 0.00 4.98 0.00 82 1020.5
20260905143030 18 158 0.0 0.0 0.00 4.98 0.00 81 1020.8
20260905142530 18 158 0.0 0.0 0.00 4.98 0.00 80 1020.9
20260905141530 18 158 0.0 0.0 0.00 4.98 0.00 80 1021.1
20260905141030 18 158 0.0 0.0 0.00 4.98 0.00 79 1020.9
20260905140530 18 225 0.0 0.0 0.00 4.98 0.00 79 1021.0
20260905140030 18 225 0.0 0.0 0.05 4.98 0.00 80 1021.0
20260905135531 18 68 0.0 0.0 0.05 4.98 0.00 79 1021.0
20260905135033 18 68 0.0 0.0 0.05 4.98 0.00 79 1020.9
20260905134531 18 68 0.0 0.0 0.15 4.98 0.00 78 1021.1
20260905134031 18 68 0.0 0.0 0.15 4.98 0.00 77 1021.1
20260905133031 18 158 3.2 6.4 0.15 5.23 0.00 77 1020.7
20260905132531 18 158 1.6 6.4 0.30 5.23 0.00 77 1020.9
20260905132033 18 23 0.0 0.0 0.30 5.23 0.00 77 1021.1
20260905131531 18 23 0.0 0.0 0.36 5.23 0.00 76 1021.2
20260905131031 18 23 0.0 0.0 0.56 5.23 0.00 73 1021.3
20260905130031 18 315 0.0 0.0 0.66 5.18 0.00 70 1021.9
20260905124531 20 0 1.6 6.4 1.14 5.08 0.00 62 1022.3
20260905124031 22 23 6.4 6.4 1.19 5.08 0.00 56 1022.3
20260905123031 24 158 0.0 4.8 1.19 5.18 0.00 51 1021.9
20260905122532 25 158 0.0 0.0 1.45 5.03 0.00 50 1021.5
20260905122033 25 158 0.0 0.0 1.45 5.03 0.00 49 1021.2
20260905121531 26 158 0.0 0.0 1.40 4.78 0.00 48 1021.0
20260905120533 26 135 0.0 0.0 2.03 4.67 0.00 50 1021.2
20260905115531 26 135 3.2 8.0 1.91 4.55 0.00 49 1021.0
20260905114532 26 135 4.8 11.3 1.55 4.04 0.00 49 1021.1
20260905114032 26 158 6.4 11.3 1.50 3.99 0.00 48 1020.9
20260905113532 26 158 6.4 9.7 1.50 3.99 0.00 49 1020.7
20260905113033 26 180 4.8 9.7 1.60 5.49 0.00 49 1020.8
20260905112532 26 135 6.4 8.0 1.50 5.08 0.00 49 1021.0
20260905112033 26 158 6.4 8.0 1.50 5.08 0.00 48 1020.9
20260905111532 27 158 4.8 8.0 1.04 4.55 0.00 48 1021.0
20260905111032 26 113 0.0 3.2 0.94 4.39 0.00 51 1020.9
20260905110032 26 68 0.0 0.0 0.89 4.14 0.00 50 1020.8
20260905105532 26 68 0.0 0.0 0.89 4.14 0.00 50 1021.0
20260905104532 26 135 0.0 0.0 0.76 3.99 0.00 49 1020.9
20260905104032 26 158 0.0 0.0 0.76 3.99 0.00 49 1020.9
20260905103536 26 45 0.0 0.0 0.66 3.89 0.00 48 1020.8
20260905103032 27 158 0.0 4.8 0.71 6.48 0.00 47 1021.0
20260905102533 27 158 1.6 4.8 0.41 6.17 0.00 46 1020.8
20260905101533 28 135 4.8 11.3 0.30 6.07 0.00 48 1020.8
20260905101035 28 135 1.6 6.4 0.10 5.84 0.00 50 1020.5
20260905100533 27 135 3.2 14.5 0.10 5.84 0.00 51 1020.6
20260905100033 27 158 8.0 14.5 0.10 5.84 0.00 52 1020.6
20260905095534 26 158 4.8 11.3 0.10 5.84 0.00 53 1020.4
20260905095033 25 23 1.6 6.4 0.05 5.82 0.00 54 1020.5
20260905094033 25 45 1.6 4.8 0.05 5.82 0.00 55 1020.8
20260905093534 25 23 0.0 0.0 0.00 5.74 0.00 55 1020.7
20260905093035 24 45 3.2 9.7 0.05 7.04 0.00 54 1020.6
20260905092533 24 45 4.8 9.7 0.05 7.04 0.00 53 1020.6
20260905092034 24 23 3.2 8.0 0.05 7.04 0.00 53 1020.8
20260905091534 24 23 4.8 8.0 0.05 7.04 0.00 53 1020.7
20260905091034 24 23 8.0 14.5 0.05 7.04 0.00 52 1020.7
20260905090535 25 23 6.4 14.5 0.05 7.04 0.00 52 1020.6
20260905090034 25 23 0.0 8.0 0.05 7.04 0.00 54 1020.5
20260905085534 25 23 3.2 6.4 0.05 7.04 0.00 54 1020.5
20260905084534 25 23 8.0 11.3 0.05 7.04 0.00 54 1020.5
20260905084034 26 23 3.2 11.3 0.20 7.04 0.00 54 1020.3
20260905083534 26 23 6.4 12.9 0.15 6.99 0.00 55 1020.2
20260905082534 26 23 8.0 19.3 0.15 7.87 0.00 56 1020.0
20260905081534 27 45 6.4 14.5 0.15 7.87 0.00 57 1019.7
20260905081034 27 0 3.2 14.5 0.15 7.87 0.00 60 1019.6
20260905080536 27 0 0.0 0.0 0.15 7.87 0.00 63 1019.3
20260905080032 26 23 0.0 3.2 0.15 7.87 0.00 63 1019.3
20260905075533 26 23 1.6 3.2 0.15 7.87 0.00 64 1019.3
20260905075033 26 135 1.6 3.2 0.15 7.87 0.00 65 1019.1
20260905074533 26 23 1.6 11.3 0.15 7.87 0.00 66 1019.1
20260905074033 25 23 6.4 14.5 0.00 7.72 0.00 68 1018.9
20260905073533 25 23 6.4 14.5 0.00 7.72 0.00 69 1018.7
20260905073035 24 45 4.8 14.5 0.00 7.87 0.00 72 1018.5
20260905072535 23 23 6.4 14.5 0.00 7.87 0.00 75 1018.5
20260905072035 23 23 1.6 9.7 0.00 7.87 0.00 76 1018.2
20260905071535 22 23 0.0 0.0 0.00 7.87 0.00 77 1017.5
20260905071035 22 23 3.2 8.0 0.00 7.87 0.00 78 1017.6
20260905070535 22 23 3.2 8.0 0.00 7.87 0.00 79 1017.6
20260905070035 22 23 0.0 0.0 0.00 7.87 0.00 81 1017.6
20260905065535 21 23 0.0 0.0 0.00 7.87 0.00 83 1017.3
20260905065035 21 23 0.0 0.0 0.00 7.87 0.00 85 1017.2
20260905064536 21 23 0.0 0.0 0.00 7.87 0.00 85 1017.1
20260905064035 20 68 0.0 0.0 0.00 7.87 0.00 86 1017.1
20260905063536 20 68 0.0 0.0 0.00 7.87 0.00 87 1017.1
20260905063035 19 68 0.0 0.0 0.00 8.18 0.00 88 1017.0
20260905062535 18 68 0.0 0.0 0.00 8.18 0.00 88 1016.9
20260905062035 18 68 0.0 0.0 0.00 8.18 0.00 89 1016.9
20260905061036 17 68 0.0 0.0 0.00 8.18 0.00 89 1016.7
20260905060535 17 68 0.0 0.0 0.00 8.18 0.00 89 1016.6
20260905060036 16 68 0.0 0.0 0.00 8.18 0.00 89 1016.7
20260905055536 16 68 0.0 0.0 0.00 8.18 0.00 89 1016.6
20260905054536 15 68 0.0 0.0 0.00 8.18 0.00 89 1016.7
20260905054036 15 68 0.0 0.0 0.00 8.18 0.00 88 1016.6
20260905053536 15 68 0.0 0.0 0.00 8.18 0.00 89 1016.6
20260905052536 15 68 0.0 0.0 0.00 8.28 0.00 89 1016.3
20260905052036 15 68 0.0 0.0 0.00 8.28 0.00 89 1016.4
20260905051036 15 68 0.0 0.0 0.00 8.28 0.00 88 1016.3
20260905050537 15 68 0.0 0.0 0.00 8.28 0.00 88 1016.1
20260905050037 14 68 0.0 0.0 0.00 8.28 0.00 88 1016.1
20260905045536 14 68 0.0 0.0 0.00 8.28 0.00 88 1016.0
20260905045039 14 68 0.0 0.0 0.00 8.28 0.00 88 1015.8
20260905044037 14 68 0.0 0.0 0.00 8.28 0.00 87 1015.6
20260905043536 13 68 0.0 0.0 0.00 8.28 0.00 87 1015.5
20260905043038 13 68 0.0 0.0 0.00 8.33 0.00 87 1015.7
20260905042537 14 68 0.0 0.0 0.00 8.33 0.00 87 1015.6
20260905042037 14 68 0.0 0.0 0.00 8.33 0.00 87 1015.5
20260905041537 14 68 0.0 0.0 0.00 8.33 0.00 87 1015.7
20260905040537 14 68 0.0 0.0 0.00 8.33 0.00 87 1015.6
20260905040123 14 68 0.0 0.0 0.00 8.33 0.00 87 1015.4
20260905040037 14 68 0.0 0.0 0.00 8.33 0.00 87 1015.4
20260905035538 14 68 0.0 0.0 0.00 8.33 0.00 87 1015.5
20260905035037 14 68 0.0 0.0 0.00 8.33 0.00 87 1015.3
20260905034537 14 68 0.0 0.0 0.00 8.33 0.00 87 1015.2
20260905034037 14 68 0.0 0.0 0.10 8.33 0.00 87 1015.1
20260905033537 14 68 0.0 0.0 0.10 8.41 0.00 87 1015.1
20260905032538 14 68 0.0 0.0 0.10 8.41 0.00 86 1015.1
20260905032037 14 68 0.0 0.0 0.10 8.41 0.00 86 1015.2
20260905031538 14 68 0.0 0.0 0.15 8.41 0.00 86 1015.0
20260905031038 15 68 0.0 0.0 0.15 8.41 0.00 86 1015.0
20260905030539 15 68 0.0 0.0 0.15 8.41 0.00 86 1014.9
20260905030037 15 68 0.0 0.0 0.20 8.41 0.00 87 1015.1
20260905025537 15 68 0.0 0.0 0.20 8.41 0.00 86 1014.9
20260905025038 15 68 0.0 0.0 0.25 8.41 0.00 86 1015.0
20260905024538 15 68 0.0 0.0 0.25 8.41 0.00 86 1014.8
20260905024038 15 68 0.0 0.0 0.15 8.28 0.00 86 1015.1